IRIDIUM 135 (43070 NORAD) Tracking and Keplerian Element Data

This shows tracking and keplerian element data for the satellite.

Feedback or suggestion? Click here.




ElementValue
Catalog43070
NameIRIDIUM 135
Epoch Orbit430
Epoch Day21.45593122
Epoch Year2018
RAAN164.4489
Inclination86.4467
Eccentricity0.000231
Argument of Perigee123.2115
Mean Anonmoly236.9307
Mean Motion14.42561342
Decay Rate8.7E-07
L11 43070U 17083A 18021.45593122 .00000087 00000-0 20247-4 0 9990
L22 43070 86.4467 164.4489 0002310 123.2115 236.9307 14.42561342 4307

Live tracking and technical data element details for IRIDIUM 135 (NORAD 43070). IRIDIUM 135 can be tracked NOW for your location showing map with azimuth and elevation plus other details from your city location.

Track the satellite on the map from your city or location and see movement details for azimuth, elevation, latitude, longitude, range, height, and movement on the map or in text.







IsCatalogInMostPopularTable: catalog: 43070, numindb: 138
Update: records affected: 1



GetName: 43070 IRIDIUM 135

Hit Count: updated at: Fri, 16 Nov 2018 09:13:05 GMT